Weather History for Freeport, IL

Change the Weather History Date:

Sunday, February 2, 2014

  Actual Average Record
Temperature  
Mean Temperature 6 °F -  
Max Temperature 18 °F 30 °F 47 °F (1987)
Min Temperature -6 °F 9 °F -19 °F (1976)
Degree Days  
Heating Degree Days 59    
Moisture  
Dew Point 2 °F    
Average Humidity 76    
Maximum Humidity 87    
Minimum Humidity 60    
Precipitation  
Precipitation 0.00 in - - ()
Sea Level Pressure  
Sea Level Pressure 30.26 in    
Wind  
Wind Speed 5 mph (WNW)    
Max Wind Speed 10 mph    
Max Gust Speed -    
Visibility 10 miles    
Events      
Averages and records for this station are not official NWS values.
T = Trace of Precipitation, MM = Missing Value Source: NWS Daily Summary

Daily Weather History Graph

Daily Weather History Graph

Search for Another Location

Airport:

Trip Planner

Search our weather history database for the weather conditions in past years. The results will help you decide how hot, cold, wet, or windy it might be!

Date:

Astronomy

Feb. 02, 2014 Rise Set
Actual Time 7:10 AM CST 5:14 PM CST
Civil Twilight 6:40 AM CST 5:43 PM CST
Nautical Twilight 6:07 AM CST 6:17 PM CST
Astronomical Twilight 5:34 AM CST 6:50 PM CST
Moon 8:32 AM CST (2/2) 9:03 PM CST (2/2)
Length of Visible Light 11h 02m
Length of Day
10h 03m
Waxing Crescent, 11% of the Moon is Illuminated
Feb 2
Waxing Crescent
Feb 6
First Quarter
Feb 14
Full
Feb 22
Last Quarter
Mar 1
New

Hourly Weather History & Observations

Time (CST) Temp. Windchill Dew Point Humidity Pressure Visibility Wind Dir Wind Speed Gust Speed Precip Events Conditions
12:15 AM 18.5 °F 10.4 °F 14.5 °F 85% 30.12 in 10.0 mi NW 5.8 mph - N/A   Clear
12:35 AM 18.5 °F 7.5 °F 14.9 °F 86% 30.13 in 10.0 mi NW 9.2 mph - N/A   Clear
12:55 AM 18.5 °F 9.3 °F 14.9 °F 86% 30.14 in 10.0 mi NW 6.9 mph - N/A   Scattered Clouds
1:15 AM 18.5 °F 10.4 °F 14.9 °F 86% 30.14 in 10.0 mi NW 5.8 mph - N/A   Mostly Cloudy
1:35 AM 18.5 °F 8.4 °F 14.9 °F 86% 30.14 in 10.0 mi NW 8.1 mph - N/A   Overcast
1:55 AM 16.3 °F 9.2 °F 12.6 °F 85% 30.15 in 10.0 mi NW 4.6 mph - N/A   Overcast
2:15 AM 15.4 °F 6.8 °F 12.0 °F 86% 30.16 in 10.0 mi NW 5.8 mph - N/A   Scattered Clouds
2:35 AM 13.6 °F 1.6 °F 10.2 °F 86% 30.15 in 10.0 mi NW 9.2 mph - N/A   Clear
2:55 AM 13.6 °F 0.7 °F 10.0 °F 86% 30.16 in 10.0 mi NW 10.4 mph - N/A   Clear
3:15 AM 13.6 °F 3.5 °F 9.7 °F 84% 30.17 in 10.0 mi NW 6.9 mph - N/A   Clear
3:35 AM 13.1 °F 2.8 °F 9.3 °F 85% 30.17 in 10.0 mi WNW 6.9 mph - N/A   Clear
3:55 AM 11.1 °F 0.4 °F 7.3 °F 85% 30.17 in 10.0 mi WNW 6.9 mph - N/A   Clear
4:15 AM 11.1 °F 3.1 °F 7.3 °F 85% 30.18 in 10.0 mi WNW 4.6 mph - N/A   Clear
4:35 AM 8.6 °F 2.0 °F 5.2 °F 86% 30.19 in 10.0 mi WNW 3.5 mph - N/A   Clear
4:55 AM 9.0 °F - 5.4 °F 85% 30.19 in 10.0 mi Calm Calm - N/A   Clear
5:15 AM 8.2 °F -1.8 °F 4.6 °F 85% 30.20 in 10.0 mi WNW 5.8 mph - N/A   Clear
5:35 AM 6.8 °F -3.5 °F 3.2 °F 85% 30.20 in 10.0 mi West 5.8 mph - N/A   Clear
5:55 AM 6.3 °F -4.1 °F 3.0 °F 87% 30.21 in 10.0 mi West 5.8 mph - N/A   Clear
6:15 AM 5.9 °F -4.5 °F 2.3 °F 85% 30.22 in 10.0 mi West 5.8 mph - N/A   Clear
6:35 AM 5.5 °F -5.0 °F 2.1 °F 86% 30.23 in 10.0 mi West 5.8 mph - N/A   Scattered Clouds
6:55 AM 4.8 °F -2.3 °F 1.4 °F 86% 30.24 in 10.0 mi West 3.5 mph - N/A   Mostly Cloudy
7:35 AM 4.6 °F -2.5 °F 1.0 °F 85% 30.25 in 10.0 mi West 3.5 mph - N/A   Mostly Cloudy
7:55 AM 2.8 °F -8.2 °F -0.4 °F 86% 30.25 in 10.0 mi West 5.8 mph - N/A   Scattered Clouds
8:15 AM 4.6 °F -2.5 °F 1.0 °F 85% 30.28 in 10.0 mi West 3.5 mph - N/A   Clear
8:35 AM 4.1 °F -6.7 °F 0.3 °F 84% 30.28 in 10.0 mi WNW 5.8 mph - N/A   Clear
8:55 AM 4.8 °F - 0.1 °F 81% 30.28 in 10.0 mi Calm Calm - N/A   Clear
9:15 AM 5.9 °F -3.0 °F 0.5 °F 78% 30.29 in 10.0 mi West 4.6 mph - N/A   Clear
9:35 AM 5.9 °F -3.0 °F 0.5 °F 78% 30.28 in 10.0 mi West 4.6 mph - N/A   Clear
9:55 AM 7.2 °F -1.5 °F 1.2 °F 77% 30.29 in 10.0 mi WNW 4.6 mph - N/A   Clear
10:15 AM 7.7 °F -2.4 °F 2.1 °F 78% 30.29 in 10.0 mi WNW 5.8 mph - N/A   Clear
10:35 AM 8.6 °F 2.0 °F 2.3 °F 76% 30.30 in 10.0 mi NW 3.5 mph - N/A   Clear
10:55 AM 10.9 °F - 3.9 °F 73% 30.30 in 10.0 mi Calm Calm - N/A   Clear
11:15 AM 11.1 °F 4.9 °F 3.2 °F 70% 30.30 in 10.0 mi West 3.5 mph - N/A   Clear
11:35 AM 11.1 °F 4.9 °F 3.2 °F 70% 30.29 in 10.0 mi WSW 3.5 mph - N/A   Clear
11:55 AM 11.1 °F 1.7 °F 3.0 °F 70% 30.30 in 10.0 mi WSW 5.8 mph - N/A   Clear
12:15 PM 11.1 °F 3.1 °F 3.0 °F 70% 30.29 in 10.0 mi WSW 4.6 mph - N/A   Clear
12:35 PM 11.1 °F 1.7 °F 3.0 °F 70% 30.27 in 10.0 mi West 5.8 mph - N/A   Clear
12:55 PM 11.1 °F 3.1 °F 3.0 °F 70% 30.26 in 10.0 mi West 4.6 mph - N/A   Clear
1:15 PM 13.6 °F 4.6 °F 4.8 °F 68% 30.28 in 10.0 mi West 5.8 mph - N/A   Clear
1:35 PM 13.6 °F 2.5 °F 4.1 °F 66% 30.29 in 10.0 mi West 8.1 mph - N/A   Clear
1:55 PM 13.6 °F 2.5 °F 3.4 °F 64% 30.29 in 10.0 mi West 8.1 mph - N/A   Clear
2:15 PM 13.6 °F 3.5 °F 3.2 °F 63% 30.28 in 10.0 mi West 6.9 mph - N/A   Clear
2:35 PM 13.6 °F 1.6 °F 3.0 °F 63% 30.29 in 10.0 mi West 9.2 mph - N/A   Clear
2:55 PM 13.6 °F 4.6 °F 3.0 °F 63% 30.32 in 10.0 mi West 5.8 mph - N/A   Clear
3:15 PM 13.6 °F 6.0 °F 2.5 °F 61% 30.32 in 10.0 mi West 4.6 mph - N/A   Clear
3:35 PM 13.6 °F 7.7 °F 3.2 °F 63% 30.31 in 10.0 mi WNW 3.5 mph - N/A   Clear
3:55 PM 13.6 °F 7.7 °F 3.0 °F 63% 30.33 in 10.0 mi West 3.5 mph - N/A   Clear
4:15 PM 13.6 °F 4.6 °F 2.3 °F 61% 30.33 in 10.0 mi WNW 5.8 mph - N/A   Clear
4:35 PM 11.3 °F 1.9 °F 0.1 °F 61% 30.31 in 10.0 mi WNW 5.8 mph - N/A   Clear
4:55 PM 11.1 °F 0.4 °F -0.4 °F 60% 30.32 in 10.0 mi WNW 6.9 mph - N/A   Clear
5:15 PM 11.1 °F 4.9 °F -0.4 °F 60% 30.31 in 10.0 mi WNW 3.5 mph - N/A   Clear
5:35 PM 9.5 °F - -1.1 °F 62% 30.31 in 10.0 mi Calm Calm - N/A   Clear
5:55 PM 8.1 °F - -2.2 °F 63% 30.30 in 10.0 mi Calm Calm - N/A   Clear
6:15 PM 7.5 °F - -2.7 °F 63% 30.30 in 10.0 mi Calm Calm - N/A   Clear
6:35 PM 5.9 °F - -2.4 °F 69% 30.30 in 10.0 mi Calm Calm - N/A   Clear
6:55 PM 5.9 °F - -2.4 °F 69% 30.29 in 10.0 mi Calm Calm - N/A   Clear
7:15 PM 3.2 °F - -4.7 °F 70% 30.30 in 10.0 mi Calm Calm - N/A   Clear
7:35 PM -0.9 °F - -6.5 °F 77% 30.29 in 10.0 mi Calm Calm - N/A   Clear
7:55 PM -1.1 °F - -7.1 °F 76% 30.29 in 10.0 mi Calm Calm - N/A   Clear
8:15 PM -2.0 °F - -7.6 °F 77% 30.30 in 10.0 mi Calm Calm - N/A   Clear
8:35 PM -1.7 °F - -6.3 °F 80% 30.30 in 10.0 mi Calm Calm - N/A   Clear
8:55 PM -1.5 °F - -7.2 °F 77% 30.31 in 10.0 mi Calm Calm - N/A   Clear
9:15 PM -2.9 °F - -9.2 °F 74% 30.31 in 10.0 mi Calm Calm - N/A   Clear
9:35 PM -2.2 °F - -7.4 °F 78% 30.30 in 10.0 mi Calm Calm - N/A   Clear
9:55 PM -0.0 °F -7.9 °F -5.8 °F 77% 30.29 in 10.0 mi West 3.5 mph - N/A   Clear
10:15 PM 0.9 °F -6.9 °F -5.8 °F 74% 30.29 in 10.0 mi WNW 3.5 mph - N/A   Clear
10:35 PM 0.3 °F - -6.0 °F 75% 30.30 in 10.0 mi Calm Calm - N/A   Clear
10:55 PM 0.9 °F -6.9 °F -5.1 °F 76% 30.31 in 10.0 mi West 3.5 mph - N/A   Clear
11:15 PM -6.5 °F - -13.2 °F 73% 30.31 in 10.0 mi Calm Calm - N/A   Clear
11:35 PM -6.5 °F - -11.0 °F 81% 30.31 in 10.0 mi Calm Calm - N/A   Clear
11:55 PM -3.3 °F - -8.0 °F 80% 30.31 in 10.0 mi Calm Calm - N/A   Clear